Location: Antioch Church
(34.9543°N, 88.5145°W)
Time: 08:49:48
(UTC+00:00)

CZ-4B DEB - Pass Details

Date: 11 December 2019
Orbit: 841 x 861 km, 99.1° (Epoch: 28 January)

Event Time Altitude Azimuth Distance (km) Brightness Sun altitude
Rises 11:34:10 0° 7° (N) 3,428 7.3 -15.5°
Reaches altitude 10° 11:36:35 10° 3° (N) 2,492 6.5 -15.0°
Maximum altitude 11:41:56 53° 288° (WNW) 1,049 4.3 -13.9°
Drops below altitude 10° 11:47:18 10° 213° (SSW) 2,487 6.5 -12.9°
Sets 11:49:43 0° 208° (SSW) 3,422 7.3 -12.4°
